| time (UTC) | temp F | wind direction | speed MPH | gust MPH | rain 1hr in | rain 24hr in | rain mn in | humidity % | barometer mb |
| 20260505211227 | 56 | 330 | 0.0 | 0.0 | 0.00 | 0.00 | 0.00 | 81 | 1029.3 |
| 20260505211111 | 56 | 330 | 0.0 | 0.0 | 0.00 | 0.00 | 0.00 | 81 | 1029.3 |
| 20260505210611 | 56 | 330 | 0.0 | 0.0 | 0.00 | 0.00 | 0.00 | 81 | 1029.4 |
| 20260505210110 | 56 | 330 | 0.0 | 0.0 | 0.00 | 0.00 | 0.00 | 80 | 1029.3 |
| 20260505205608 | 56 | 330 | 0.0 | 0.0 | 0.00 | 0.00 | 0.00 | 80 | 1029.2 |
| 20260505205108 | 56 | 330 | 0.0 | 0.0 | 0.00 | 0.00 | 0.00 | 80 | 1029.1 |
| 20260505204608 | 57 | 330 | 0.0 | 0.0 | 0.00 | 0.00 | 0.00 | 80 | 1029.1 |
| 20260505204105 | 57 | 330 | 0.0 | 0.0 | 0.00 | 0.00 | 0.00 | 79 | 1029.1 |
| 20260505203606 | 57 | 330 | 0.0 | 0.0 | 0.00 | 0.00 | 0.00 | 79 | 1029.1 |
| 20260505203107 | 57 | 330 | 0.0 | 0.0 | 0.00 | 0.00 | 0.00 | 79 | 1029.1 |
| 20260505202604 | 57 | 330 | 0.0 | 0.0 | 0.00 | 0.00 | 0.00 | 79 | 1029.0 |
| 20260505201605 | 57 | 330 | 0.0 | 0.0 | 0.00 | 0.00 | 0.00 | 79 | 1028.9 |
| 20260505201101 | 57 | 330 | 0.0 | 0.0 | 0.00 | 0.00 | 0.00 | 79 | 1028.8 |
| 20260505200559 | 57 | 330 | 0.0 | 0.0 | 0.00 | 0.00 | 0.00 | 79 | 1028.9 |
| 20260505200101 | 57 | 330 | 0.0 | 0.0 | 0.00 | 0.00 | 0.00 | 79 | 1028.9 |
| 20260505195556 | 57 | 330 | 0.0 | 0.0 | 0.00 | 0.00 | 0.00 | 79 | 1028.9 |
| 20260505195057 | 57 | 330 | 0.0 | 0.0 | 0.00 | 0.00 | 0.00 | 78 | 1028.9 |
| 20260505194557 | 57 | 330 | 0.0 | 0.0 | 0.00 | 0.00 | 0.00 | 77 | 1029.1 |
| 20260505194055 | 57 | 330 | 0.0 | 0.0 | 0.00 | 0.00 | 0.00 | 77 | 1028.9 |
| 20260505193552 | 57 | 330 | 0.0 | 0.0 | 0.00 | 0.00 | 0.00 | 77 | 1028.9 |
| 20260505193053 | 57 | 330 | 0.0 | 0.0 | 0.00 | 0.00 | 0.00 | 77 | 1028.8 |
| 20260505192550 | 57 | 330 | 0.0 | 0.0 | 0.00 | 0.00 | 0.00 | 76 | 1028.8 |
| 20260505192050 | 57 | 330 | 0.0 | 0.0 | 0.00 | 0.00 | 0.00 | 76 | 1028.8 |
| 20260505191916 | 58 | 330 | 0.0 | 0.0 | 0.00 | 0.00 | 0.00 | 76 | 1028.8 |
| 20260505191552 | 58 | 330 | 0.0 | 0.0 | 0.00 | 0.00 | 0.00 | 76 | 1028.8 |
| 20260505191048 | 58 | 330 | 0.0 | 0.0 | 0.00 | 0.00 | 0.00 | 75 | 1028.8 |
| 20260505190549 | 58 | 330 | 0.0 | 0.0 | 0.00 | 0.00 | 0.00 | 75 | 1028.7 |
| 20260505190048 | 58 | 330 | 0.0 | 0.0 | 0.00 | 0.00 | 0.00 | 74 | 1028.7 |
| 20260505185546 | 58 | 330 | 0.0 | 0.0 | 0.00 | 0.00 | 0.00 | 74 | 1028.6 |
| 20260505185045 | 58 | 330 | 0.0 | 0.0 | 0.00 | 0.00 | 0.00 | 74 | 1028.6 |
| 20260505184545 | 58 | 330 | 0.0 | 0.0 | 0.00 | 0.00 | 0.00 | 74 | 1028.7 |
| 20260505184042 | 58 | 330 | 0.0 | 0.0 | 0.00 | 0.00 | 0.00 | 73 | 1028.7 |
| 20260505183542 | 58 | 330 | 0.0 | 0.0 | 0.00 | 0.00 | 0.00 | 73 | 1028.7 |
| 20260505183042 | 58 | 330 | 0.0 | 0.0 | 0.00 | 0.00 | 0.00 | 72 | 1028.7 |
| 20260505182536 | 59 | 330 | 0.0 | 0.0 | 0.00 | 0.00 | 0.00 | 72 | 1028.8 |
| 20260505182036 | 59 | 330 | 0.0 | 0.0 | 0.00 | 0.00 | 0.00 | 72 | 1028.7 |
| 20260505181536 | 59 | 330 | 0.0 | 0.0 | 0.00 | 0.00 | 0.00 | 71 | 1028.7 |
| 20260505181034 | 59 | 330 | 0.0 | 0.0 | 0.00 | 0.00 | 0.00 | 71 | 1028.7 |
| 20260505180533 | 59 | 330 | 0.0 | 0.0 | 0.00 | 0.00 | 0.00 | 71 | 1028.7 |
| 20260505180034 | 59 | 330 | 0.0 | 0.0 | 0.00 | 0.00 | 0.00 | 70 | 1028.5 |
| 20260505175532 | 59 | 330 | 0.0 | 0.0 | 0.00 | 0.00 | 0.00 | 70 | 1028.6 |
| 20260505175031 | 59 | 330 | 0.0 | 0.0 | 0.00 | 0.00 | 0.00 | 70 | 1028.6 |
| 20260505174029 | 60 | 330 | 0.0 | 0.0 | 0.00 | 0.00 | 0.00 | 69 | 1028.5 |
| 20260505173528 | 60 | 330 | 0.0 | 0.0 | 0.00 | 0.00 | 0.00 | 69 | 1028.5 |
| 20260505173028 | 60 | 330 | 0.0 | 0.0 | 0.00 | 0.00 | 0.00 | 69 | 1028.4 |
| 20260505172524 | 60 | 330 | 0.0 | 0.0 | 0.00 | 0.00 | 0.00 | 69 | 1028.4 |
| 20260505172024 | 60 | 330 | 0.0 | 0.0 | 0.00 | 0.00 | 0.00 | 69 | 1028.4 |
| 20260505171020 | 60 | 330 | 0.0 | 0.0 | 0.00 | 0.00 | 0.00 | 69 | 1028.2 |
| 20260505170521 | 60 | 330 | 0.0 | 0.0 | 0.00 | 0.00 | 0.00 | 69 | 1028.3 |
| 20260505170021 | 60 | 330 | 0.0 | 0.0 | 0.00 | 0.00 | 0.00 | 69 | 1028.3 |
| 20260505165518 | 60 | 330 | 0.0 | 0.0 | 0.00 | 0.00 | 0.00 | 70 | 1028.2 |
| 20260505165018 | 60 | 330 | 0.0 | 0.0 | 0.00 | 0.00 | 0.00 | 70 | 1028.2 |
| 20260505164519 | 60 | 330 | 0.0 | 0.0 | 0.00 | 0.00 | 0.00 | 70 | 1028.3 |
| 20260505164016 | 60 | 330 | 0.0 | 0.0 | 0.00 | 0.00 | 0.00 | 69 | 1028.2 |
| 20260505163516 | 60 | 330 | 0.0 | 0.0 | 0.00 | 0.00 | 0.00 | 70 | 1028.2 |
| 20260505163017 | 60 | 330 | 0.0 | 0.0 | 0.00 | 0.00 | 0.00 | 70 | 1028.2 |
| 20260505162514 | 60 | 330 | 0.0 | 0.0 | 0.00 | 0.00 | 0.00 | 69 | 1028.1 |
| 20260505162014 | 60 | 330 | 0.0 | 0.0 | 0.00 | 0.00 | 0.00 | 70 | 1028.1 |
| 20260505161515 | 60 | 330 | 0.0 | 0.0 | 0.00 | 0.00 | 0.00 | 70 | 1028.0 |
| 20260505161009 | 60 | 330 | 0.0 | 0.0 | 0.00 | 0.00 | 0.00 | 70 | 1027.9 |
| 20260505160509 | 60 | 330 | 0.0 | 0.0 | 0.00 | 0.00 | 0.00 | 70 | 1027.8 |
| 20260505153002 | 58 | 330 | 0.0 | 0.0 | 0.00 | 0.00 | 0.00 | 79 | 1027.8 |
| 20260505152458 | 58 | 330 | 0.0 | 0.0 | 0.00 | 0.00 | 0.00 | 79 | 1027.9 |
| 20260505151959 | 57 | 330 | 0.0 | 0.0 | 0.00 | 0.00 | 0.00 | 79 | 1028.0 |
| 20260505151459 | 57 | 330 | 0.0 | 0.0 | 0.00 | 0.00 | 0.00 | 81 | 1027.9 |
| 20260505150953 | 57 | 330 | 0.0 | 0.0 | 0.00 | 0.00 | 0.00 | 81 | 1027.9 |
| 20260505150454 | 57 | 330 | 0.0 | 0.0 | 0.00 | 0.00 | 0.00 | 82 | 1027.8 |
| 20260505140445 | 59 | 330 | 0.0 | 0.0 | 0.00 | 0.00 | 0.00 | 80 | 1027.8 |
| 20260505124930 | 61 | 330 | 0.0 | 0.0 | 0.00 | 0.00 | 0.00 | 77 | 1027.4 |
| 20260505124431 | 61 | 330 | 0.0 | 0.0 | 0.00 | 0.00 | 0.00 | 76 | 1027.4 |
| 20260505123928 | 61 | 330 | 0.0 | 0.0 | 0.00 | 0.00 | 0.00 | 76 | 1027.4 |
| 20260505123428 | 61 | 330 | 0.0 | 0.0 | 0.00 | 0.00 | 0.00 | 76 | 1027.3 |
| 20260505122929 | 61 | 330 | 0.0 | 0.0 | 0.00 | 0.00 | 0.00 | 76 | 1027.3 |
| 20260505122424 | 61 | 330 | 0.0 | 0.0 | 0.00 | 0.00 | 0.00 | 76 | 1027.2 |
| 20260505121925 | 61 | 330 | 0.0 | 0.0 | 0.00 | 0.00 | 0.00 | 76 | 1027.2 |
| 20260505121426 | 62 | 330 | 0.0 | 0.0 | 0.00 | 0.00 | 0.00 | 76 | 1027.2 |
| 20260505120921 | 62 | 330 | 0.0 | 0.0 | 0.00 | 0.00 | 0.00 | 76 | 1027.2 |
| 20260505120422 | 62 | 330 | 0.0 | 0.0 | 0.00 | 0.00 | 0.00 | 76 | 1027.2 |
| 20260505115922 | 62 | 330 | 0.0 | 0.0 | 0.00 | 0.00 | 0.00 | 75 | 1027.1 |
| 20260505115420 | 62 | 330 | 0.0 | 0.0 | 0.00 | 0.00 | 0.00 | 75 | 1027.1 |
| 20260505114920 | 62 | 330 | 0.0 | 0.0 | 0.00 | 0.00 | 0.00 | 75 | 1027.1 |
| 20260505114420 | 62 | 330 | 0.0 | 0.0 | 0.00 | 0.00 | 0.00 | 75 | 1027.0 |
| 20260505113917 | 63 | 330 | 0.0 | 0.0 | 0.00 | 0.00 | 0.00 | 74 | 1027.0 |
| 20260505113417 | 63 | 330 | 0.0 | 0.0 | 0.00 | 0.00 | 0.00 | 74 | 1027.0 |
| 20260505112918 | 63 | 330 | 0.0 | 0.0 | 0.00 | 0.00 | 0.00 | 74 | 1027.0 |
| 20260505112414 | 63 | 330 | 0.0 | 0.0 | 0.00 | 0.00 | 0.00 | 74 | 1026.9 |
| 20260505111914 | 63 | 330 | 0.0 | 0.0 | 0.00 | 0.00 | 0.00 | 74 | 1026.9 |
| 20260505111415 | 63 | 330 | 0.0 | 0.0 | 0.00 | 0.00 | 0.00 | 73 | 1026.9 |
| 20260505110913 | 63 | 330 | 0.0 | 0.0 | 0.00 | 0.00 | 0.00 | 73 | 1026.9 |
| 20260505110414 | 64 | 330 | 0.0 | 0.0 | 0.00 | 0.00 | 0.00 | 73 | 1026.8 |
| 20260505101858 | 65 | 330 | 0.0 | 0.0 | 0.00 | 0.00 | 0.00 | 71 | 1026.2 |
| 20260505101357 | 65 | 330 | 0.0 | 0.0 | 0.00 | 0.00 | 0.00 | 70 | 1026.1 |
| 20260505100855 | 65 | 330 | 0.0 | 0.0 | 0.00 | 0.00 | 0.00 | 70 | 1026.0 |
| 20260505100354 | 66 | 330 | 0.0 | 0.0 | 0.00 | 0.00 | 0.00 | 70 | 1026.0 |
| 20260505095856 | 66 | 330 | 0.0 | 0.0 | 0.00 | 0.00 | 0.00 | 70 | 1025.9 |
| 20260505095351 | 66 | 330 | 0.0 | 0.0 | 0.00 | 0.00 | 0.00 | 69 | 1025.9 |
| 20260505094852 | 66 | 330 | 0.0 | 0.0 | 0.00 | 0.00 | 0.00 | 68 | 1025.8 |
| 20260505094352 | 67 | 330 | 0.0 | 0.0 | 0.00 | 0.00 | 0.00 | 68 | 1025.8 |
| 20260505093850 | 67 | 330 | 0.0 | 0.0 | 0.00 | 0.00 | 0.00 | 68 | 1025.7 |
| 20260505093350 | 67 | 330 | 0.0 | 0.0 | 0.00 | 0.00 | 0.00 | 67 | 1025.7 |
| 20260505092850 | 67 | 330 | 0.0 | 0.0 | 0.00 | 0.00 | 0.00 | 66 | 1025.7 |
| 20260505092347 | 67 | 330 | 0.0 | 0.0 | 0.00 | 0.00 | 0.00 | 66 | 1025.6 |
| 20260505091847 | 68 | 330 | 0.0 | 0.0 | 0.00 | 0.00 | 0.00 | 65 | 1025.6 |
| 20260505091347 | 68 | 330 | 0.0 | 0.0 | 0.00 | 0.00 | 0.00 | 65 | 1025.5 |
| 20260505090844 | 68 | 330 | 0.0 | 0.0 | 0.00 | 0.00 | 0.00 | 64 | 1025.5 |
| 20260505090345 | 68 | 330 | 0.0 | 0.0 | 0.00 | 0.00 | 0.00 | 64 | 1025.4 |
| 20260505085845 | 69 | 330 | 0.0 | 0.0 | 0.00 | 0.00 | 0.00 | 63 | 1025.4 |
| 20260505085342 | 69 | 330 | 0.0 | 0.0 | 0.00 | 0.00 | 0.00 | 63 | 1025.4 |
| 20260505084842 | 69 | 330 | 0.0 | 0.0 | 0.00 | 0.00 | 0.00 | 63 | 1025.4 |
| 20260505084342 | 69 | 330 | 0.0 | 0.0 | 0.00 | 0.00 | 0.00 | 62 | 1025.3 |
| 20260505083839 | 70 | 330 | 0.0 | 0.0 | 0.00 | 0.00 | 0.00 | 61 | 1025.3 |
| 20260505083339 | 70 | 330 | 0.0 | 0.0 | 0.00 | 0.00 | 0.00 | 61 | 1025.3 |
| 20260505082840 | 70 | 330 | 0.0 | 0.0 | 0.00 | 0.00 | 0.00 | 59 | 1025.3 |
| 20260505082335 | 70 | 330 | 0.0 | 0.0 | 0.00 | 0.00 | 0.00 | 59 | 1025.3 |
| 20260505081836 | 71 | 330 | 0.0 | 0.0 | 0.00 | 0.00 | 0.00 | 58 | 1025.2 |
| 20260505081336 | 71 | 330 | 0.0 | 0.0 | 0.00 | 0.00 | 0.00 | 57 | 1025.3 |
| 20260505080832 | 71 | 330 | 0.0 | 0.0 | 0.00 | 0.00 | 0.00 | 55 | 1025.2 |
| 20260505080332 | 72 | 330 | 0.0 | 0.0 | 0.00 | 0.00 | 0.00 | 55 | 1025.1 |
| 20260505075833 | 72 | 330 | 0.0 | 0.0 | 0.00 | 0.00 | 0.00 | 55 | 1025.1 |
| 20260505075329 | 73 | 330 | 0.0 | 0.0 | 0.00 | 0.00 | 0.00 | 54 | 1025.1 |
| 20260505074829 | 73 | 330 | 0.0 | 0.0 | 0.00 | 0.00 | 0.00 | 53 | 1025.1 |
| 20260505074329 | 74 | 330 | 0.0 | 0.0 | 0.00 | 0.00 | 0.00 | 52 | 1025.0 |
| 20260505073826 | 74 | 330 | 0.0 | 0.0 | 0.00 | 0.00 | 0.00 | 51 | 1025.0 |
| 20260505073327 | 75 | 330 | 0.0 | 0.0 | 0.00 | 0.00 | 0.00 | 52 | 1025.0 |
| 20260505072827 | 75 | 330 | 0.0 | 0.0 | 0.00 | 0.00 | 0.00 | 51 | 1025.0 |
| 20260505072323 | 75 | 330 | 0.0 | 0.0 | 0.00 | 0.00 | 0.00 | 51 | 1025.0 |
| 20260505071824 | 75 | 330 | 0.0 | 0.0 | 0.00 | 0.00 | 0.00 | 51 | 1025.0 |
| 20260505071324 | 75 | 330 | 0.0 | 0.0 | 0.00 | 0.00 | 0.00 | 51 | 1025.0 |
| 20260505070820 | 75 | 330 | 0.0 | 0.0 | 0.00 | 0.00 | 0.00 | 51 | 1025.0 |
| 20260505070320 | 75 | 330 | 0.0 | 0.0 | 0.00 | 0.00 | 0.00 | 51 | 1025.1 |
| 20260505065821 | 75 | 330 | 0.0 | 0.0 | 0.00 | 0.00 | 0.00 | 50 | 1025.1 |
| 20260505065318 | 74 | 330 | 0.0 | 0.0 | 0.00 | 0.00 | 0.00 | 48 | 1025.0 |
| 20260505064818 | 74 | 330 | 0.0 | 0.0 | 0.00 | 0.00 | 0.00 | 45 | 1025.1 |
| 20260505064318 | 74 | 330 | 0.0 | 0.0 | 0.00 | 0.00 | 0.00 | 44 | 1025.1 |
| 20260505063815 | 74 | 330 | 0.0 | 0.0 | 0.00 | 0.00 | 0.00 | 44 | 1025.0 |
| 20260505063315 | 74 | 330 | 0.0 | 0.0 | 0.00 | 0.00 | 0.00 | 44 | 1025.0 |
| 20260505062815 | 74 | 330 | 0.0 | 0.0 | 0.00 | 0.00 | 0.00 | 45 | 1025.0 |
| 20260505062311 | 74 | 330 | 0.0 | 0.0 | 0.00 | 0.00 | 0.00 | 45 | 1024.9 |
| 20260505061812 | 75 | 330 | 0.0 | 0.0 | 0.00 | 0.00 | 0.00 | 44 | 1025.1 |
| 20260505061312 | 75 | 330 | 0.0 | 0.0 | 0.00 | 0.00 | 0.00 | 44 | 1025.0 |
| 20260505060809 | 75 | 330 | 0.0 | 0.0 | 0.00 | 0.00 | 0.00 | 44 | 1025.0 |
| 20260505060309 | 76 | 330 | 0.0 | 0.0 | 0.00 | 0.00 | 0.00 | 42 | 1025.1 |
| 20260505055810 | 76 | 330 | 0.0 | 0.0 | 0.00 | 0.00 | 0.00 | 45 | 1025.0 |
| 20260505055308 | 76 | 330 | 0.0 | 0.0 | 0.00 | 0.00 | 0.00 | 45 | 1025.1 |
| 20260505054807 | 77 | 330 | 0.0 | 0.0 | 0.00 | 0.00 | 0.00 | 43 | 1025.1 |
| 20260505054307 | 77 | 330 | 0.0 | 0.0 | 0.00 | 0.00 | 0.00 | 43 | 1025.2 |
| 20260505053805 | 77 | 330 | 0.0 | 0.0 | 0.00 | 0.00 | 0.00 | 45 | 1025.3 |
| 20260505053305 | 77 | 330 | 0.0 | 0.0 | 0.00 | 0.00 | 0.00 | 46 | 1025.3 |
| 20260505052805 | 77 | 330 | 0.0 | 0.0 | 0.00 | 0.00 | 0.00 | 46 | 1025.3 |
| 20260505052301 | 76 | 330 | 0.0 | 0.0 | 0.00 | 0.00 | 0.00 | 46 | 1025.4 |
| 20260505051802 | 76 | 330 | 0.0 | 0.0 | 0.00 | 0.00 | 0.00 | 46 | 1025.5 |
| 20260505051302 | 76 | 330 | 0.0 | 0.0 | 0.00 | 0.00 | 0.00 | 46 | 1025.6 |
| 20260505050758 | 76 | 330 | 0.0 | 0.0 | 0.00 | 0.00 | 0.00 | 47 | 1025.7 |
| 20260505050259 | 75 | 330 | 0.0 | 0.0 | 0.00 | 0.00 | 0.00 | 47 | 1025.8 |
| 20260505041749 | 74 | 330 | 0.0 | 0.0 | 0.00 | 0.00 | 0.00 | 48 | 1026.7 |
| 20260505041248 | 74 | 330 | 0.0 | 0.0 | 0.00 | 0.00 | 0.00 | 48 | 1026.7 |
| 20260505040743 | 73 | 330 | 0.0 | 0.0 | 0.00 | 0.00 | 0.00 | 49 | 1026.8 |
| 20260505040243 | 73 | 330 | 0.0 | 0.0 | 0.00 | 0.00 | 0.00 | 50 | 1027.0 |
| 20260505035743 | 73 | 330 | 0.0 | 0.0 | 0.00 | 0.00 | 0.00 | 49 | 1027.1 |
| 20260505035240 | 73 | 330 | 0.0 | 0.0 | 0.00 | 0.00 | 0.00 | 49 | 1027.2 |
| 20260505034740 | 73 | 330 | 0.0 | 0.0 | 0.00 | 0.00 | 0.00 | 49 | 1027.2 |
| 20260505034241 | 72 | 330 | 0.0 | 0.0 | 0.00 | 0.00 | 0.00 | 50 | 1027.4 |
| 20260505033738 | 72 | 330 | 0.0 | 0.0 | 0.00 | 0.00 | 0.00 | 51 | 1027.4 |
| 20260505033238 | 72 | 330 | 0.0 | 0.0 | 0.00 | 0.00 | 0.00 | 51 | 1027.5 |
| 20260505032738 | 71 | 330 | 0.0 | 0.0 | 0.00 | 0.00 | 0.00 | 52 | 1027.6 |
| 20260505032330 | 71 | 330 | 0.0 | 0.0 | 0.00 | 0.00 | 0.00 | 53 | 1027.7 |
| 20260505032233 | 71 | 330 | 0.0 | 0.0 | 0.00 | 0.00 | 0.00 | 53 | 1027.7 |
| 20260505031732 | 71 | 330 | 0.0 | 0.0 | 0.00 | 0.00 | 0.00 | 52 | 1027.8 |
| 20260505031232 | 71 | 330 | 0.0 | 0.0 | 0.00 | 0.00 | 0.00 | 53 | 1027.8 |
| 20260505030728 | 70 | 330 | 0.0 | 0.0 | 0.00 | 0.00 | 0.00 | 53 | 1027.8 |
| 20260505030228 | 70 | 330 | 0.0 | 0.0 | 0.00 | 0.00 | 0.00 | 53 | 1027.9 |
| 20260505025730 | 70 | 330 | 0.0 | 0.0 | 0.00 | 0.00 | 0.00 | 53 | 1028.0 |
| 20260505025226 | 70 | 330 | 0.0 | 0.0 | 0.00 | 0.00 | 0.00 | 55 | 1028.1 |
| 20260505024726 | 70 | 330 | 0.0 | 0.0 | 0.00 | 0.00 | 0.00 | 55 | 1028.2 |
| 20260505024227 | 70 | 330 | 0.0 | 0.0 | 0.00 | 0.00 | 0.00 | 54 | 1028.1 |
| 20260505023725 | 70 | 330 | 0.0 | 0.0 | 0.00 | 0.00 | 0.00 | 55 | 1028.3 |
| 20260505023224 | 69 | 330 | 0.0 | 0.0 | 0.00 | 0.00 | 0.00 | 55 | 1028.4 |
| 20260505022724 | 69 | 330 | 0.0 | 0.0 | 0.00 | 0.00 | 0.00 | 56 | 1028.5 |
| 20260505022221 | 69 | 330 | 0.0 | 0.0 | 0.00 | 0.00 | 0.00 | 57 | 1028.5 |
| 20260505021721 | 69 | 330 | 0.0 | 0.0 | 0.00 | 0.00 | 0.00 | 57 | 1028.6 |
| 20260505021221 | 68 | 330 | 0.0 | 0.0 | 0.00 | 0.00 | 0.00 | 59 | 1028.6 |
| 20260505020718 | 68 | 330 | 0.0 | 0.0 | 0.00 | 0.00 | 0.00 | 59 | 1028.7 |
| 20260505020219 | 67 | 330 | 0.0 | 0.0 | 0.00 | 0.00 | 0.00 | 58 | 1028.7 |
| 20260505015719 | 67 | 330 | 0.0 | 0.0 | 0.00 | 0.00 | 0.00 | 60 | 1028.7 |
| 20260505015214 | 66 | 330 | 0.0 | 0.0 | 0.00 | 0.00 | 0.00 | 62 | 1028.7 |
| 20260505014715 | 66 | 330 | 0.0 | 0.0 | 0.00 | 0.00 | 0.00 | 61 | 1028.7 |
| 20260505014247 | 65 | 330 | 0.0 | 0.0 | 0.00 | 0.00 | 0.00 | 63 | 1028.8 |
| 20260505014215 | 65 | 330 | 0.0 | 0.0 | 0.00 | 0.00 | 0.00 | 63 | 1028.8 |
| 20260505013712 | 65 | 330 | 0.0 | 0.0 | 0.00 | 0.00 | 0.00 | 63 | 1028.8 |
| 20260505013212 | 64 | 330 | 0.0 | 0.0 | 0.00 | 0.00 | 0.00 | 64 | 1028.9 |
| 20260505012713 | 64 | 330 | 0.0 | 0.0 | 0.00 | 0.00 | 0.00 | 65 | 1028.9 |
| 20260505012209 | 64 | 330 | 0.0 | 0.0 | 0.00 | 0.00 | 0.00 | 67 | 1029.0 |
| 20260505011709 | 63 | 330 | 0.0 | 0.0 | 0.00 | 0.00 | 0.00 | 67 | 1029.0 |
| 20260505011210 | 63 | 330 | 0.0 | 0.0 | 0.00 | 0.00 | 0.00 | 69 | 1029.0 |
| 20260505010706 | 62 | 330 | 0.0 | 0.0 | 0.00 | 0.00 | 0.00 | 70 | 1029.0 |
| 20260505010206 | 61 | 330 | 0.0 | 0.0 | 0.00 | 0.00 | 0.00 | 71 | 1029.1 |
| 20260505005707 | 61 | 330 | 0.0 | 0.0 | 0.00 | 0.00 | 0.00 | 72 | 1029.1 |
| 20260505005203 | 60 | 330 | 0.0 | 0.0 | 0.00 | 0.00 | 0.00 | 73 | 1029.3 |
| 20260505004704 | 60 | 330 | 0.0 | 0.0 | 0.00 | 0.00 | 0.00 | 73 | 1029.3 |
| 20260505004204 | 59 | 330 | 0.0 | 0.0 | 0.00 | 0.00 | 0.00 | 75 | 1029.3 |
| 20260505003700 | 59 | 330 | 0.0 | 0.0 | 0.00 | 0.00 | 0.00 | 77 | 1029.3 |
| 20260505003201 | 58 | 330 | 0.0 | 0.0 | 0.00 | 0.00 | 0.00 | 78 | 1029.3 |
| 20260505002702 | 58 | 330 | 0.0 | 0.0 | 0.00 | 0.00 | 0.00 | 80 | 1029.3 |
| 20260505002158 | 57 | 330 | 0.0 | 0.0 | 0.00 | 0.00 | 0.00 | 80 | 1029.1 |
| 20260505001657 | 57 | 330 | 0.0 | 0.0 | 0.00 | 0.00 | 0.00 | 81 | 1029.0 |
| 20260505001157 | 56 | 330 | 0.0 | 0.0 | 0.00 | 0.00 | 0.00 | 82 | 1029.0 |
| 20260505000653 | 56 | 330 | 0.0 | 0.0 | 0.00 | 0.00 | 0.00 | 84 | 1029.0 |
| 20260505000154 | 56 | 330 | 0.0 | 0.0 | 0.00 | 0.00 | 0.00 | 84 | 1028.9 |
| 20260504235655 | 55 | 330 | 0.0 | 0.0 | 0.00 | 0.00 | 0.00 | 86 | 1028.7 |
| 20260504235244 | 55 | 330 | 0.0 | 0.0 | 0.00 | 0.00 | 0.00 | 87 | 1028.7 |
| 20260504235151 | 55 | 330 | 0.0 | 0.0 | 0.00 | 0.00 | 0.00 | 87 | 1028.7 |
| 20260504234651 | 54 | 330 | 0.0 | 0.0 | 0.00 | 0.00 | 0.00 | 88 | 1028.6 |
| 20260504234151 | 54 | 330 | 0.0 | 0.0 | 0.00 | 0.00 | 0.00 | 90 | 1028.5 |
| 20260504233648 | 53 | 330 | 0.0 | 0.0 | 0.00 | 0.00 | 0.00 | 92 | 1028.5 |
| 20260504233149 | 52 | 330 | 0.0 | 0.0 | 0.00 | 0.00 | 0.00 | 94 | 1028.5 |
| 20260504232649 | 52 | 330 | 0.0 | 0.0 | 0.00 | 0.00 | 0.00 | 95 | 1028.5 |
| 20260504232145 | 51 | 330 | 0.0 | 0.0 | 0.00 | 0.00 | 0.00 | 95 | 1028.5 |
| 20260504231646 | 51 | 330 | 0.0 | 0.0 | 0.00 | 0.00 | 0.00 | 95 | 1028.4 |
| 20260504231148 | 51 | 330 | 0.0 | 0.0 | 0.00 | 0.00 | 0.00 | 95 | 1028.4 |
| 20260504230639 | 51 | 330 | 0.0 | 0.0 | 0.00 | 0.00 | 0.00 | 94 | 1028.3 |
| 20260504230137 | 51 | 330 | 0.0 | 0.0 | 0.00 | 0.00 | 0.00 | 94 | 1028.2 |
| 20260504225637 | 51 | 330 | 0.0 | 0.0 | 0.00 | 0.00 | 0.00 | 94 | 1028.2 |
| 20260504225133 | 51 | 330 | 0.0 | 0.0 | 0.00 | 0.00 | 0.00 | 94 | 1028.2 |
| 20260504224633 | 51 | 330 | 0.0 | 0.0 | 0.00 | 0.00 | 0.00 | 94 | 1028.1 |
| 20260504224134 | 51 | 330 | 0.0 | 0.0 | 0.00 | 0.00 | 0.00 | 94 | 1027.9 |
| 20260504223629 | 51 | 330 | 0.0 | 0.0 | 0.00 | 0.00 | 0.00 | 94 | 1027.8 |
| 20260504223130 | 51 | 330 | 0.0 | 0.0 | 0.00 | 0.00 | 0.00 | 93 | 1027.7 |
| 20260504222631 | 51 | 330 | 0.0 | 0.0 | 0.00 | 0.00 | 0.00 | 93 | 1027.7 |
| 20260504222127 | 51 | 330 | 0.0 | 0.0 | 0.00 | 0.00 | 0.00 | 93 | 1027.6 |
| 20260504221627 | 51 | 330 | 0.0 | 0.0 | 0.00 | 0.00 | 0.00 | 93 | 1027.6 |
| 20260504220625 | 51 | 330 | 0.0 | 0.0 | 0.00 | 0.00 | 0.00 | 93 | 1027.6 |
| 20260504220126 | 51 | 330 | 0.0 | 0.0 | 0.00 | 0.00 | 0.00 | 93 | 1027.6 |
| 20260504215626 | 51 | 330 | 0.0 | 0.0 | 0.00 | 0.00 | 0.00 | 93 | 1027.5 |
| 20260504215122 | 51 | 330 | 0.0 | 0.0 | 0.00 | 0.00 | 0.00 | 93 | 1027.4 |
| 20260504214622 | 52 | 330 | 0.0 | 0.0 | 0.00 | 0.00 | 0.00 | 93 | 1027.3 |
| 20260504214123 | 51 | 330 | 0.0 | 0.0 | 0.00 | 0.00 | 0.00 | 93 | 1027.3 |
| 20260504213620 | 52 | 330 | 0.0 | 0.0 | 0.00 | 0.00 | 0.00 | 92 | 1027.4 |
| 20260504213120 | 52 | 330 | 0.0 | 0.0 | 0.00 | 0.00 | 0.00 | 92 | 1027.3 |
| 20260504212621 | 52 | 330 | 0.0 | 0.0 | 0.00 | 0.00 | 0.00 | 92 | 1027.3 |
| 20260504212117 | 52 | 330 | 0.0 | 0.0 | 0.00 | 0.00 | 0.00 | 92 | 1027.3 |
| 20260504211618 | 52 | 330 | 0.0 | 0.0 | 0.00 | 0.00 | 0.00 | 92 | 1027.4 |